DW4332 Weather Reports


time (UTC)temp
F
wind
direction
speed
knots
gust
knots
rain 1hr
in
rain 24hr
in
rain mn
in
humidity
%
barometer
mb
20260905091545 70 355 0.0 0.0 0.00 0.00 0.00 100 1008.3
20260905090040 70 355 0.0 0.0 0.00 0.00 0.00 100 1008.2
20260905084536 70 355 0.0 0.0 0.00 0.00 0.00 100 1008.3
20260905083031 70 355 0.0 0.0 0.00 0.00 0.00 100 1008.2
20260905081526 71 355 0.0 0.0 0.00 0.00 0.00 100 1008.3
20260905080023 71 355 0.0 0.0 0.00 0.00 0.00 100 1008.4
20260905074519 71 355 0.0 0.0 0.00 0.00 0.00 100 1008.4
20260905073014 72 355 0.0 0.0 0.00 0.00 0.00 5 1008.3
20260905071510 72 355 0.0 0.0 0.00 0.00 0.00 11 1008.4
20260905070005 72 355 0.0 0.0 0.00 0.00 0.00 13 1008.4
20260905064501 73 355 0.0 0.0 0.00 0.00 0.00 20 1008.5
20260905063057 73 355 0.0 0.0 0.00 0.00 0.00 25 1008.5
20260905061606 72 355 0.0 0.0 0.00 0.00 0.00 3 1008.6
20260905060055 71 325 0.0 0.0 0.00 0.00 0.00 100 1008.5
20260905054544 71 325 0.0 0.0 0.00 0.00 0.00 100 1008.6
20260905053039 71 325 0.0 0.0 0.00 0.00 0.00 100 1008.9
20260905051535 71 325 0.0 0.0 0.00 0.00 0.00 100 1009.0
20260905050031 72 325 0.0 0.0 0.00 0.00 0.00 100 1009.0
20260905044526 72 325 0.0 0.0 0.00 0.00 0.00 100 1009.1
20260905043022 72 325 0.0 0.0 0.00 0.00 0.00 100 1009.2
20260905041518 73 325 0.0 0.0 0.00 0.00 0.00 100 1009.5
20260905040013 73 325 0.0 0.0 0.00 0.00 0.00 100 1009.4
20260905034515 74 325 0.0 0.0 0.00 0.00 0.00 100 1009.4
20260905033005 74 325 0.0 0.0 0.00 0.00 0.00 100 1009.2
20260905031600 74 325 0.0 0.0 0.00 0.00 0.00 100 1009.2
20260905030105 75 325 0.0 0.0 0.00 0.00 0.00 100 1009.3
20260905024552 75 325 0.0 0.0 0.00 0.00 0.00 100 1009.2
20260905023047 75 325 0.0 0.0 0.00 0.00 0.00 100 1009.2
20260905021543 75 325 0.0 0.0 0.00 0.00 0.00 100 1009.2
20260905020047 75 325 0.0 0.0 0.00 0.00 0.00 100 1009.2
20260905014534 75 325 0.0 0.0 0.00 0.00 0.00 100 1009.2
20260905013032 75 325 0.0 0.0 0.00 0.00 0.00 100 1009.2
20260905011536 76 325 0.0 0.0 0.00 0.00 0.00 100 1009.3
20260905010021 76 325 0.0 0.0 0.00 0.00 0.00 100 1009.1
20260905004517 77 325 0.0 0.0 0.00 0.00 0.00 100 1009.0
20260905003012 77 325 0.0 0.0 0.00 0.00 0.00 1 1008.7
20260905001508 78 325 0.0 0.0 0.00 0.00 0.00 11 1008.7
20260905000004 79 325 0.0 0.0 0.00 0.00 0.00 18 1008.7
20260904234600 79 325 0.0 0.0 0.00 0.00 0.00 27 1008.9
20260904233055 79 325 0.0 0.0 0.00 0.00 0.00 34 1008.9
20260904231550 80 325 0.0 0.0 0.00 0.00 0.00 39 1008.8
20260904230047 80 325 0.0 0.0 0.00 0.00 0.00 42 1008.8
20260904224546 81 325 0.0 0.0 0.00 0.00 0.00 44 1009.0
20260904223038 81 232 0.0 0.0 0.00 0.00 0.00 51 1008.9
20260904221533 82 227 0.0 0.0 0.00 0.00 0.00 54 1008.9
20260904220029 83 298 0.0 0.0 0.00 0.00 0.00 58 1008.9
20260904214524 83 67 0.0 0.0 0.00 0.00 0.00 60 1008.9
20260904213020 83 149 0.0 0.0 0.00 0.00 0.00 60 1009.0
20260904211515 84 259 0.0 0.0 0.00 0.00 0.00 60 1008.7
20260904210013 84 343 0.0 0.0 0.00 0.00 0.00 60 1008.8
20260904204508 85 338 0.0 0.0 0.00 0.00 0.00 61 1008.8
20260904203006 86 338 0.0 0.0 0.00 0.00 0.00 61 1009.0
20260904201559 86 116 0.9 0.0 0.00 0.00 0.00 61 1009.1
20260904200054 87 68 0.0 0.0 0.00 0.00 0.00 61 1009.2
20260904194607 87 153 0.9 0.0 0.00 0.00 0.00 61 1009.3
20260904193046 88 303 0.9 0.0 0.00 0.00 0.00 60 1009.6
20260904191541 87 23 0.0 0.0 0.00 0.00 0.00 60 1009.7
20260904190036 87 93 0.9 0.0 0.00 0.00 0.00 60 1009.7
20260904184537 87 195 0.9 0.0 0.00 0.00 0.00 60 1009.9
20260904183028 87 333 0.0 0.0 0.00 0.00 0.00 60 1009.9
20260904181541 87 182 0.0 0.0 0.00 0.00 0.00 60 1009.9
20260904180019 87 355 0.0 0.0 0.00 0.00 0.00 60 1010.0
20260904174515 87 146 0.0 0.0 0.00 0.00 0.00 60 1010.0
20260904173018 87 355 0.9 0.0 0.00 0.00 0.00 60 1009.9
20260904171506 87 15 0.0 0.0 0.00 0.00 0.00 59 1009.9
20260904170002 88 111 0.9 0.0 0.00 0.00 0.00 59 1010.0
20260904164558 88 326 0.0 0.0 0.00 0.00 0.00 60 1010.0
20260904163053 87 332 0.0 0.0 0.00 0.00 0.00 60 1010.0
20260904161549 87 336 0.9 0.0 0.00 0.00 0.00 58 1010.1
20260904160045 87 65 0.0 0.0 0.00 0.00 0.00 59 1010.1
20260904154546 87 343 0.9 0.0 0.00 0.00 0.00 59 1010.2
20260904153036 86 343 0.9 0.0 0.00 0.00 0.00 60 1010.3
20260904151535 86 5 0.9 0.0 0.00 0.00 0.00 59 1010.4
20260904150027 86 326 0.9 0.0 0.00 0.00 0.00 58 1010.4
20260904144523 85 90 0.9 0.0 0.00 0.00 0.00 57 1010.4
20260904143029 85 355 0.9 0.0 0.00 0.00 0.00 54 1010.5
20260904141514 84 339 0.9 0.0 0.00 0.00 0.00 46 1010.3
20260904140027 84 312 0.9 0.0 0.00 0.00 0.00 41 1010.2
20260904134505 83 329 0.9 0.0 0.00 0.00 0.00 32 1010.2
20260904133001 82 360 0.9 0.0 0.00 0.00 0.00 21 1010.0
20260904131559 81 326 0.0 0.0 0.00 0.00 0.00 100 1010.1
20260904130053 80 210 0.0 0.0 0.00 0.00 0.00 100 1010.1
20260904124548 79 335 0.0 0.0 0.00 0.00 0.00 100 1010.1
20260904123044 78 166 0.0 0.0 0.00 0.00 0.00 100 1010.1
20260904121540 78 162 0.0 0.0 0.00 0.00 0.00 100 1010.0
20260904120045 77 305 0.0 0.0 0.00 0.00 0.00 100 1009.9
20260904114531 76 155 0.0 0.0 0.00 0.00 0.00 100 1010.0
20260904113027 75 80 0.0 0.0 0.00 0.00 0.00 100 1009.9
20260904111522 74 80 0.0 0.0 0.00 0.00 0.00 100 1009.6
20260904110018 74 65 0.0 0.0 0.00 0.00 0.00 100 1009.4
20260904104514 74 161 0.0 0.0 0.00 0.00 0.00 100 1009.3
20260904103019 74 162 0.0 0.0 0.00 0.00 0.00 100 1009.2
20260904101505 74 161 0.0 0.0 0.00 0.00 0.00 100 1009.1
20260904100101 74 162 0.0 0.0 0.00 0.00 0.00 100 1009.3
20260904094558 75 162 0.0 0.0 0.00 0.00 0.00 100 1009.1
20260904093059 75 159 0.0 0.0 0.00 0.00 0.00 100 1009.1